Location: ?
(35.4214°N, 139.3011°E)
Time: 17:41:17
(UTC+00:00)

Envisat - Visible Passes

Search period start: 28 September 2020 00:00
Search period end: 08 October 2020 00:00
Orbit: 764 x 766 km, 98.1° (Epoch: 28 September)

Date Brightness Start Highest point End Pass type
(mag) Time Alt. Az. Time Alt. Az. Time Alt. Az.
28 Sep 6.7 09:35:34 10° W 09:35:57 10° W 09:36:20 10° W visible
28 Sep 5.1 20:03:48 10° NNE 20:08:21 32° E 20:12:52 10° SSE visible
29 Sep 5.7 08:54:40 10° SSW 08:58:50 25° W 09:03:00 10° NW visible
29 Sep 6.3 19:28:49 10° ENE 19:31:16 13° E 19:33:44 10° ESE visible
01 Oct 6.3 09:21:57 10° WSW 09:24:28 14° W 09:26:59 10° WNW visible
01 Oct 5.6 19:52:45 10° NE 19:56:55 25° E 20:01:03 10° SSE visible
04 Oct 6.1 09:09:37 10° SW 09:13:00 18° W 09:16:25 10° NW visible
04 Oct 6.0 19:41:52 10° NE 19:45:29 19° E 19:49:05 10° SE visible
06 Oct 4.9 20:06:25 10° NNE 20:11:04 35° E 20:15:41 10° SSE visible
07 Oct 5.8 08:57:34 10° SSW 09:01:34 23° W 09:05:34 10° NW visible
07 Oct 6.2 19:31:10 10° ENE 19:34:01 15° E 19:36:52 10° SE visible
